Location: Bangkok
(13.7500°N, 100.5170°E)
Time: 20:40:48
(UTC+07:00)

Hubble Space Telescope - Visible Passes

Search period start: 27 May 2017 00:00
Search period end: 06 June 2017 00:00
Orbit: 538 x 541 km, 28.5° (Epoch: 26 May)

Date Brightness Start Highest point End Pass type
(mag) Time Alt. Az. Time Alt. Az. Time Alt. Az.
27 May 2.5 03:40:57 29° E 03:40:57 29° E 03:43:11 10° ESE visible
27 May 1.9 05:16:48 10° W 05:20:13 25° SSW 05:23:39 10° SSE visible
27 May 0.8 18:56:06 10° SW 19:00:12 64° SSE 19:04:17 10° ENE visible
27 May 2.6 20:37:57 10° W 20:41:31 27° NNW 20:42:24 25° N visible
28 May 3.5 03:32:45 13° ESE 03:32:45 13° ESE 03:33:13 10° ESE visible
28 May 2.3 05:08:12 14° WSW 05:10:09 18° SSW 05:13:01 10° SSE visible
28 May 3.0 20:28:17 10° WNW 20:31:33 22° NNW 20:33:45 15° NNE visible
29 May 2.7 05:00:02 13° SSW 05:00:04 13° SSW 05:02:00 10° S visible
29 May 3.3 20:18:42 10° WNW 20:21:37 18° NNW 20:24:33 10° NNE visible
30 May 3.5 20:09:10 10° NW 20:11:42 16° NNW 20:14:15 10° NNE visible
31 May 3.5 19:59:42 10° NW 20:01:49 14° NNW 20:03:56 10° NNE visible
01 Jun 3.6 19:50:17 10° NNW 19:51:57 12° N 19:53:35 10° NNE visible
02 Jun 3.6 19:40:56 10° NNW 19:42:05 11° N 19:43:14 10° N visible
02 Jun 3.9 21:22:58 10° NNW 21:23:01 10° N 21:23:01 10° N visible
03 Jun 3.7 19:31:38 10° NNW 19:32:14 10° N 19:32:49 10° N visible
03 Jun 3.7 21:12:37 10° NNW 21:13:28 12° N 21:13:28 12° N visible
04 Jun 3.5 21:02:17 10° NNW 21:03:51 14° N 21:03:51 14° N visible
05 Jun 3.2 20:51:58 10° NNW 20:54:13 16° N 20:54:13 16° N visible
